Время (UTC), дата Ветер
(°,м/с) 
Видим.   Явления Облачность Т
(°С)
Тd
(°С)
f(%) Тe
(°С)
Pmin
(гПа)
dP
(гПа)
Po
(мм)
O2
(г/м3)
Тmin Tmax R s Состояние
почвы
00 18.08.15 220 (ЮЗ) 20000 м    6/3 2000 м средняя, верхняя 
[Ac trans|Ci fib]
+16.6 +8.9 60 +16  1018  0.9  739  279  +13.2        сухая 
03 18.08.15 250 (З) 20000 м    6/0 верхняя 
[Ci fib]
+20.7 +10.7 53 +23  1017.8  0.2  739  275           
06 18.08.15 220 (ЮЗ) 20000 м    8/3 600 м средняя, верхняя 
[Cu med, cong|Ac trans|Ci fib]
+25.7 +12.4 44 +31  1017.1  -0.1  739  270           
09 18.08.15 340 (С) 20000 м    8/5 600 м верхняя 
[Cu med, cong|Ci fib]
+25.7 +13.1 46 +32  1016.7  -0.4  739  270           
12 18.08.15 020 (С) 20000 м    9/3 600 м верхняя 
[Cu hum|Ci fib]
+23.4 +15.4 61 +33  1017.4  0.5  739  271    +27       
15 18.08.15 250 (З) 4000 м    6/0 верхняя 
[Ci fib]
+17.4 +15 86 +27  1019.2  1.1  740  277           
18 18.08.15 230 (ЮЗ) 4000 м    ясно 
+15.3 +13.9 91 +24  1019.6  0.2  740  280           
21 18.08.15 240 (ЮЗ) 4000 м    8/0 верхняя 
[Ci fib]
+13.7 +12.8 94 +20  1019.8  -0.1  740  281           
00 19.08.15 тихо ()   2000 м  дымка  9/0 верхняя 
[Ci fib]
+13.9 +13 94 +20  1019.6  740  281  +12.5        сухая 
03 19.08.15 090 (В) 20000 м    9/0 верхняя 
[Ci fib]
+19.1 +13.7 71 +28  1018.6  -0.5  740  276           
06 19.08.15 080 (В) 20000 м    9/3 2000 м средняя, верхняя 
[Ac trans|Ci fib]
+23.7 +14.2 55 +31  1016.2  -1.8  739  271           
09 19.08.15 090 (В) 20000 м    9/0 верхняя 
[Ci fib]
+25.7 +15.1 52 +35  1013.9  -2  737  268           
12 19.08.15 тихо ()   20000 м    9/6 2000 м средняя, верхняя 
[Ac trans|Ci fib]
+24.2 +16 60 +35  1012.9  -1.2  736  269    +26       
15 19.08.15 тихо ()   4000 м    9/3 2000 м средняя, верхняя 
[Ac trans|Ci fib]
+18.3 +15.4 83 +28  1012.4  -1.1  735  274           
18 19.08.15 230 (ЮЗ) 4000 м    6/0 верхняя 
[Ci fib]
+15.5 +14.1 91 +25  1011.5  -1.2  734  277           
21 19.08.15 тихо ()   4000 м    4/0 верхняя 
[Ci fib]
+13.6 +12.9 96 +19  1010.4  -1.3  733  279           
00 20.08.15 050 (СВ) 20000 м    5/0 верхняя 
[Ci fib]
+14.8 +13.4 91 +23  1009.9  -0.3  733  278  +13.2        сухая 
03 20.08.15 220 (ЮЗ) 20000 м    9/0 верхняя 
[Ci fib]
+24.3 +14 53 +32  1008.1  -0.7  733  268           
06 20.08.15 230 (ЮЗ) 20000 м    9/0 верхняя 
[Ci fib]
+28.9 +14.2 41 +37  1006.4  -1.2  732  264           
09 20.08.15 230 (ЮЗ) 20000 м    8/0 верхняя 
[Ci fib]
+30.9 +15 38 +40  1004.8  -1.3  731  261           
12 20.08.15 240 (ЮЗ) 20000 м    9/0 верхняя 
[Ci]
+26.3 +17.8 60 +41  1004.3  -0.9  730  264    +31       
15 20.08.15 240 (ЮЗ) 4000 м    9/3 2000 м средняя, верхняя 
[Ac lent|Ci fib]
+20.5 +14.9 70 +30  1003.9  -1.1  729  270           
18 20.08.15 тихо ()   4000 м    8/3 2000 м средняя, верхняя 
[Ac lent|Ci fib]
+18.5 +15.1 81 +28  1003.2  -0.9  729  272           
21 20.08.15 тихо ()   4000 м    9/0 верхняя 
[Ci fib]
+16.2 +14.3 88 +24  1002.6  -0.8  728  274           
00 21.08.15 тихо ()   20000 м    9/0 верхняя 
[Ci]
+17.3 +15.4 89 +28  1001.6  -0.9  727  272  +15        сухая 
03 21.08.15 тихо ()   20000 м    10/3 2000 м средняя, верхняя 
[Ac trans|Cs]
+23.5 +17 67 +37  998.6  -2.2  726  265           
06 21.08.15 210 (ЮЗ) 20000 м    10/4 600 м верхняя 
[Cu med, cong|Cs]
+30.1 +12.8 35 +36  995.9  -1.9  724  260           
09 21.08.15 230 (ЮЗ) 20000 м    8/3 2000 м средняя, верхняя 
[Ac trans|Cc]
+32.6 +12 28 +37  994.3  -1.4  723  258           
12 21.08.15 230 (ЮЗ) 20000 м    6/3 600 м верхняя 
[Cu med, cong|Ci fib]
+30.1 +13.4 36 +37  994  -0.5  723  260    +33.1       
15 21.08.15 220 (ЮЗ) 4000 м  гроза без осадков  8/5 600 м кучево-дожд., верхняя 
[Cb cap|Ci fib]
+26.7 +12.9 42 +33  993.6  -0.8  722  263           
18 21.08.15 270 (З) 4000 м  {гроза, ливн. осадки}  4/0 верхняя 
[Ci fib]
+22.7 +15.4 63 +33  995.8  1.8  724  266           
21 21.08.15 250 (З) 2{11}  4000 м    9/9 600 м кучево-дожд. 
[Cb cap]
+19.5 +13.2 67 +28  998.9  2.6  726  270           
00 22.08.15 250 (З) 20000 м    9/4 600 м кучево-дожд., средняя, верхняя 
[Cb cap|Ac trans|Ci fib]
+18.3 +13 71 +25  999.2  0.2  726  271  +17.8    0.0    сухая 
03 22.08.15 220 (ЮЗ) 20000 м    3/0 верхняя 
[Ci fib]
+21.3 +13.3 60 +28  998.8  -0.1  726  269           
06 22.08.15 140 (ЮВ) 20000 м    9/3 2000 м средняя, верхняя 
[Ac trans|Ci fib]
+25.9 +13.3 46 +33  996.8  -1.4  725  264           
09 22.08.15 тихо ()   20000 м    9/6 600 м кучево-дожд., средняя, верхняя 
[Cb cap|Ac trans|Ci fib]
+27.7 +13.4 41 +35  994.7  -0.9  723  262           
12 22.08.15 230 (ЮЗ) 2{16}  20000 м  гроза, ливневой дождь  10/10 600 м кучево-дожд. 
[Cb cap]
+15.3 +13.7 90 +23  1002  5.8  728  275    +27.8     
15 22.08.15 240 (ЮЗ) 4000 м  в посл. час ливневой дождь{гроза}  10/10 600 м кучево-дожд. 
[Cb cap]
+14 +12.3 89 +20  1005  2.8  730  277           
18 22.08.15 240 (ЮЗ) 4000 м  {гроза, ливн. осадки}  10/10 600 м кучево-дожд. 
[Cb cap]
+13.7 +11.1 84 +17  1007.1  1.9  731  278           
21 22.08.15 260 (З) 4000 м    10/10 600 м кучево-дожд. 
[Cb cap]
+12.7 +10.6 87 +16  1009.6  2.3  733  280           
00 23.08.15 тихо ()   20000 м    10/10 600 м кучево-дожд. 
[Cb cap]
+12.6 +11.1 91 +16  1011.6  1.9  734  281  +12.4    0.3    влажная 
03 23.08.15 тихо ()   20000 м    10/10 600 м кучево-дожд. 
[Cb cap]
+13 +10.1 83 +15  1013.4  1.8  736  281           
06 23.08.15 050 (СВ) 20000 м    10/8 600 м кучево-дожд., средняя 
[Cb cap|Ac As]
+14.5 +9.7 73 +17  1014  0.8  736  280           
09 23.08.15 100 (В) 20000 м    10/8 600 м кучево-дожд., средняя 
[Cb cap|Ac As]
+16.1 +10 67 +19  1014.2  0.3  736  278           
12 23.08.15 тихо ()   20000 м    10/5 600 м кучево-дожд., средняя 
[Cb cap|Ac As]
+14.9 +9.5 70 +16  1015.1  0.8  737  280    +17       
15 23.08.15 240 (ЮЗ) 4000 м    9/3 600 м кучево-дожд., средняя, верхняя 
[Cb cap|Ac trans|Ci fib]
+11.8 +10.6 92 +15  1016.5  738  283           
18 23.08.15 тихо ()   4000 м    10/10 600 м кучево-дожд. 
[Cb cap]
+12.1 +11.5 96 +16  1016  -0.4  737  282           
21 23.08.15 тихо ()   4000 м  слаб. ливневой дождь  10/10 600 м кучево-дожд. 
[Cb cap]
+12 +11.2 95 +15  1016  737  282           
00 24.08.15 тихо ()   20000 м  слаб. ливневой дождь  10/10 100 м кучево-дожд. 
[Cb cap]
+12.1 +11.5 96 +16  1015.9  -0.1  737  282  +11.6      влажная 
03 24.08.15 130 (ЮВ) 20000 м  слаб. ливневой дождь  10/10 600 м кучево-дожд. 
[Cb cap]
+13.8 +12.3 91 +20  1016  0.2  737  280           
06 24.08.15 160 (Ю) 20000 м  {ливн. осадки}  9/4 600 м верхняя 
[Cu med, cong|Ci fib]
+17.8 +12.6 72 +24  1014.9  -0.5  737  276           
09 24.08.15 010 (С) 20000 м    9/8 600 м верхняя 
[Cu med, cong|Ci fib]
+20.9 +11.6 55 +25  1014.4  -0.2  737  274           
12 24.08.15 230 (ЮЗ) 20000 м    3/3 600 м 
[Cu med, cong]
+19.2 +12 63 +25  1015.2  0.6  737  275    +21.6  0.1     
15 24.08.15 220 (ЮЗ) 4000 м    ясно 
+15.9 +11.3 74 +19  1017.1  1.4  738  279           
18 24.08.15 220 (ЮЗ) 4000 м    ясно 
+15.5 +11.2 76 +18  1017.1  738  279           
21 24.08.15 060 (СВ) 4000 м    ясно 
+11.8 +10.2 90 +15  1017.5  -0.1  738  283           
00 25.08.15 тихо ()   4000 м  дымка  ясно 
+10.4 +9.6 95 +11  1017.7  0.1  738  285  +9.4        сухая 
03 25.08.15 070 (В) 20000 м    3/3 600 м 
[Cu med, cong]
+18.6 +11.9 65 +24  1016.1  -0.6  738  276           
06 25.08.15 080 (В) 20000 м    8/6 600 м верхняя 
[Cu hum|Ci fib]
+21.7 +10.4 49 +24  1013.3  -2.5  736  273           
09 25.08.15 070 (В) 20000 м    9/4 600 м верхняя 
[Cu hum|Ci fib]
+21.9 +9.7 46 +23  1010.6  -2.6  734  272           
12 25.08.15 080 (В) 20000 м    9/5 600 м кучево-дожд., верхняя 
[Cb cap|Ci fib]
+20.3 +11.3 56 +24  1009.5  -1.1  733  273    +22.4       
15 25.08.15 тихо ()   4000 м    9/0 верхняя 
[Ci fib]
+14.6 +10.8 78 +17  1009.2  -0.8  733  278           
18 25.08.15 240 (ЮЗ) 4000 м    3/0 верхняя 
[Ci fib]
+11.5 +9.5 88 +14  1008  -1.5  732  281           
21 25.08.15 230 (ЮЗ) 4000 м    ясно 
+9.6 +8.8 95 +11  1007.5  -0.7  731  283           
00 26.08.15 тихо ()   20000 м    ясно 
+10.5 +9.9 96 +12  1007.1  -0.3  731  282  +8.8        сухая 
03 26.08.15 030 (СВ) 20000 м    9/0 верхняя 
[Ci]
+18.3 +12.2 68 +25  1006  -0.2  731  274           
06 26.08.15 220 (ЮЗ) 20000 м    9/3 2000 м средняя, верхняя 
[Ac lent|Ci fib]
+23.7 +11.3 46 +27  1005.1  -0.4  730  269           
09 26.08.15 110 (В) 20000 м    9/3 2000 м средняя, верхняя 
[Ac lent|Ci fib]
+26.7 +8.5 32 +27  1003.8  -0.9  730  266           
12 26.08.15 тихо ()   20000 м    9/3 2000 м средняя, верхняя 
[Ac lent|Ci fib]
+23.6 +12.5 50 +29  1003.6  -0.5  729  268    +26.9       
15 26.08.15 тихо ()   4000 м    10/0 верхняя 
[Cs]
+17.4 +13.3 77 +24  1003.4  -0.8  729  273           
18 26.08.15 240 (ЮЗ) 4000 м    8/3 2000 м средняя, верхняя 
[Ac lent|Ci fib]
+14.9 +12.2 84 +21  1002.3  -1.4  728  276           
21 26.08.15 250 (З) 4000 м    9/5 600 м кучево-дожд., средняя, верхняя 
[Cb cap|Ac trans|Ci fib]
+18 +11.4 65 +23  1005.1  3.1  730  274           
00 27.08.15 240 (ЮЗ) 20000 м    10/8 600 м кучево-дожд., средняя 
[Cb cap|Ac As]
+16.9 +10.1 64 +19  1009.3  3.9  733  276  +14.6        сухая 
03 27.08.15 230 (ЮЗ) 20000 м  {ливн. осадки}  9/5 600 м кучево-дожд., верхняя 
[Cb cap|Ci fib]
+18.3 +10.9 62 +22  1010.5  1.3  734  275           
09 27.08.15 230 (ЮЗ) 4{13}  20000 м    8/8 600 м 
[Cu med, cong]
+19.7 +5.2 39 +20  1013.5  1.8  736  276           
12 27.08.15 250 (З) 2{10}  20000 м    4/4 600 м 
[Cu med, cong]
+17.5 +3.6 40 +18  1015.4  1.6  737  279    +21.9  0.0     
15 27.08.15 210 (ЮЗ) 4000 м    ясно 
+11.2 +4.6 64 +11  1018.6  2.4  739  285           
18 27.08.15 220 (ЮЗ) 4000 м    ясно 
+12.2 +2.9 53 +13  1020.3  1.8  740  285           
21 27.08.15 220 (ЮЗ) 4000 м    5/5 1000 м 
[Sc]
+9.4 +3.9 69 +9  1021.9  1.2  741  288           
00 28.08.15 220 (ЮЗ) 20000 м    9/9 600 м кучево-дожд. 
[Cb cap]
+11.6 +4.3 61 +12  1023  1.4  742  286  +8.8        сухая 
03 28.08.15 210 (ЮЗ) 20000 м    3/3 600 м 
[Cu hum]
+15.4 +5.1 50 +16  1023.5  0.8  743  283           
06 28.08.15 240 (ЮЗ) 20000 м    9/9 600 м кучево-дожд. 
[Cb cap]
+16.7 +4.7 45 +18  1023.3  743  281           
09 28.08.15 200 (Ю) 20000 м    6/6 600 м кучево-дожд. 
[Cb cap]
+18.7 +4 38 +20  1022.5  -0.5  743  279           
12 28.08.15 230 (ЮЗ) 20000 м    3/3 600 м 
[Cu hum]
+15.6 +6.9 56 +17  1022.7  -0.1  743  282    +18.8       
15 28.08.15 240 (ЮЗ) 4000 м    3/0 верхняя 
[Ci fib]
+9.6 +4.9 73 +10  1024.5  743  289           
18 28.08.15 250 (З) 4000 м    ясно 
+6.4 +4.6 88 +7  1025.1  0.1  743  292           
21 28.08.15 тихо ()   4000 м    ясно 
+4.3 +3.6 95 +4  1024.9  -0.4  743  294           
00 29.08.15 тихо ()   20000 м    ясно 
+4.4 +4.2 99 +4  1025.2  0.3  743  294  +2.8        сухая 
03 29.08.15 040 (СВ) 20000 м    ясно 
+13.3 +6.4 63 +15  1024  -0.2  743  284           
06 29.08.15 100 (В) 20000 м    6/5 600 м кучево-дожд., средняя 
[Cb cap|Ac lent]
+20.1 +5 37 +20  1021.7  -1.4  742  278           
09 29.08.15 210 (ЮЗ) 20000 м    8/8 600 м кучево-дожд. 
[Cb cap]
+21.3 +4.6 34 +21  1020.5  -1.1  741  276           
15 29.08.15 230 (ЮЗ) 4000 м    3/0 верхняя 
[Ci fib]
+10.8 +5.6 70 +12  1022.1  0.6  742  287           
18 29.08.15 тихо ()   4000 м    ясно 
+8.1 +5.7 85 +8  1022.2  -0.3  741  289           
21 29.08.15 тихо ()   4000 м    ясно 
+5.7 +4.8 94 +6  1021.9  -0.5  741  292           
00 30.08.15 тихо ()   20000 м    ясно 
+5.9 +5.2 95 +6  1022.2  0.3  741  292  +4.5        сухая 
03 30.08.15 060 (СВ) 20000 м    ясно 
+14.9 +7.9 63 +16  1020.5  -0.5  741  282           
06 30.08.15 250 (З) 20000 м    ясно 
+21.4 +2.2 28 +21  1018.5  -1.4  740  276           
09 30.08.15 220 (ЮЗ) 20000 м    3/0 верхняя 
[Ci fib]
+23 +3.8 29 +23  1017.6  -0.6  739  274           
12 30.08.15 200 (Ю) 20000 м    3/0 верхняя 
[Ci fib]
+20.2 +7.1 43 +20  1018.3  0.3  740  276    +23.4       
15 30.08.15 220 (ЮЗ) 4000 м    ясно 
+18 +4.7 41 +19  1019  0.5  740  279           
18 30.08.15 220 (ЮЗ) 4000 м    ясно 
+17.4 +4.6 43 +17  1019.3  0.2  740  280           
21 30.08.15 220 (ЮЗ) 5{10}  4000 м    ясно 
+16.9 +5 45 +17  1019.4  0.1  740  280           
00 31.08.15 220 (ЮЗ) 20000 м    8/3 600 м кучево-дожд., средняя, верхняя 
[Cb cap|Ac trans|Ci fib]
+16.9 +4.7 44 +17  1019.7  0.3  740  280  +16.5        сухая 
03 31.08.15 220 (ЮЗ) 20000 м    3/0 верхняя 
[Ci fib]
+20.3 +6.7 41 +20  1020.4  0.9  741  277           
06 31.08.15 220 (ЮЗ) 20000 м    3/0 верхняя 
[Ci fib]
+24.7 +5.5 29 +25  1019.4  -0.4  741  273           
09 31.08.15 240 (ЮЗ) 20000 м    3/0 верхняя 
[Ci fib]
+27.3 +8.2 30 +27  1017.9  -1.1  740  270           
15 31.08.15 250 (З) 4000 м    ясно 
+15.6 +9.4 67 +18  1019.7  0.8  740  281           
18 31.08.15 250 (З) 4000 м    ясно 
+12.9 +8.1 73 +13  1019.7  -0.4  740  283           
21 31.08.15 240 (ЮЗ) 4000 м    ясно 
+9.9 +8 88 +11  1019.1  -0.9  739  286           
00 01.09.15 тихо ()   20000 м    ясно 
+8.4 +7.3 93 +8  1018.8  -0.4  739  288  +7.3        сухая 
03 01.09.15 080 (В) 20000 м    ясно 
+15.8 +9 64 +17  1017.5  -0.5  739  280           
06 01.09.15 060 (СВ) 20000 м    ясно 
+22.4 +10.6 47 +25  1015.1  -1.5  738  273           
09 01.09.15 090 (В) 20000 м    6/0 верхняя 
[Ci fib]
+26.1 +12.1 42 +31  1013.1  -1.6  736  269           
12 01.09.15 тихо ()   20000 м    6/3 2000 м средняя, верхняя 
[Ac lent|Ci fib]
+23.1 +13.3 54 +29  1013  -0.4  736  271    +26.3       
15 01.09.15 240 (ЮЗ) 4000 м    3/0 верхняя 
[Ci fib]
+15.7 +11 74 +19  1014.4  0.5  737  279           
18 01.09.15 230 (ЮЗ) 4000 м    9/0 верхняя 
[Ci fib]
+13.3 +10 80 +17  1014.4  -0.3  736  281           
21 01.09.15 240 (ЮЗ) 4000 м    ясно 
+10.8 +8.8 87 +12  1014.1  -0.5  736  284           
03 02.09.15 060 (СВ) 20000 м    ясно 
+17.2 +11.3 68 +22  1013.2  -0.2  736  277           
06 02.09.15 090 (В) 20000 м    ясно 
+23.7 +12.1 48 +28  1011.9  -0.6  735  270           
09 02.09.15 090 (В) 20000 м    4/3 600 м верхняя 
[Cu med, cong|Ci fib]
+27.2 +12 39 +32  1010.8  -0.7  735  267           
12 02.09.15 210 (ЮЗ) 20000 м    1/1 600 м 
[Cu med, cong]
+23.5 +14.8 58 +32  1011.3  0.1  735  270    +27.5       
15 02.09.15 тихо ()   4000 м    ясно 
+18.1 +12.8 71 +24  1012.5  0.6  735  275           
18 02.09.15 220 (ЮЗ) 4000 м    ясно 
+14.5 +11.7 83 +20  1012.8  -0.1  735  279           
21 02.09.15 250 (З) 4000 м    ясно 
+12.4 +10.9 91 +17  1012.7  -0.4  735  281           
00 03.09.15 тихо ()   10 км    ясно 
+11.1 +10.5 96 +13  1013.1  0.3  735  283  +10.5        сухая 
03 03.09.15 060 (СВ) 20000 м    3/0 верхняя 
[Ci fib]
+17.8 +12.2 70 +24  1011.6  -0.8  735  276           
06 03.09.15 090 (В) 20000 м    4/0 верхняя 
[Ci fib]
+24.5 +12.6 47 +30  1008.5  -2.2  733  269           
09 03.09.15 090 (В) 20000 м    9/0 верхняя 
[Ci fib]
+26.1 +9.7 36 +27  1007.3  -1  732  268           
12 03.09.15 110 (В) 20000 м    3/0 верхняя 
[Ci fib]
+23.9 +12 47 +28  1006.7  -0.8  732  269    +27.2       
15 03.09.15 тихо ()   4000 м    ясно 
+16.7 +12 74 +21  1007.8  0.2  732  276           
18 03.09.15 240 (ЮЗ) 4000 м    3/0 верхняя 
[Ci fib]
+14.3 +11.3 82 +19  1007.2  -0.7  731  278           
21 03.09.15 250 (З) 4000 м    4/3 600 м кучево-дожд., верхняя 
[Cb cap|Ci fib]
+12.4 +10.5 88 +16  1006.9  -0.6  731  280           
00 04.09.15 230 (ЮЗ) 20000 м    8/4 2000 м средняя, верхняя 
[Ac trans|Ci fib]
+11.6 +10.6 94 +15  1007.7  0.7  731  281  +11.3        сухая 
03 04.09.15 350 (С) 20000 м    9/5 2000 м средняя, верхняя 
[Ac As|Ci fib]
+18.9 +13.1 69 +26  1008.2  1.3  732  273           
06 04.09.15 270 (З) 20000 м    10/8 600 м кучево-дожд., средняя 
[Cb cap|Ac As]
+17.1 +12.8 76 +24  1010  1.6  734  276           
Время (UTC), дата Ветер
(°,м/с) 
Видим.   Явления Облачность Т
(°С)
Тd
(°С)
f(%) Тe
(°С)
Pmin
(гПа)
dP
(гПа)
Po
(мм)
O2
(г/м3)
Тmin Tmax R s Состояние
почвы